Location: Beekmeers
(50.8953°N, 3.6968°E)
Time: 05:30:55
(UTC+00:00)

Helios 1A Rocket - Pass Details

Date: 23 May 2024
Orbit: 520 x 543 km, 98.3° (Epoch: 19 June)

Event Time Altitude Azimuth Distance (km) Brightness Sun altitude
Exits shadow 00:10:31 23° 127° (SE) 1,167 4.2 -18.2°
Maximum altitude 00:12:30 43° 69° (ENE) 766 3.7 -18.2°
Drops below altitude 10° 00:16:10 10° 357° (N) 1,793 6.7 -18.1°
Sets 00:18:20 0° 351° (N) 2,684 7.7 -18.0°
